Location: Tauranga
(37.6860°S, 176.1670°E)
Time: 09:01:44
(UTC+13:00)

ISS - Pass Details

Date: 30 January 2019
Orbit: 411 x 421 km, 51.6° (Epoch: 21 October)

Event Time Altitude Azimuth Distance (km) Brightness Sun altitude
Rises 12:51:03 0° 241° (WSW) 2,375 -0.1 68.8°
Reaches altitude 10° 12:53:22 10° 254° (WSW) 1,507 -1.0 68.9°
Drops below altitude 10° 12:59:05 10° 10° (N) 1,499 -0.5 69.4°
Enters shadow 13:29:58 -61° 48° (NE) 11,679 3.1 70.4°
Exits shadow 14:05:59 -48° 212° (SSW) 10,035 2.7 68.7°
